EW6230 Weather Reports


time (UTC)temp
F
wind
direction
speed
knots
gust
knots
rain 1hr
in
rain 24hr
in
rain mn
in
humidity
%
barometer
mb
20260502123104 47 243 0.0 0.0 0.00 0.00 0.00 1 1013.7
20260502121550 47 243 0.0 0.0 0.00 0.00 0.00 1 1013.6
20260502114542 47 243 0.0 0.0 0.00 0.00 0.00 1 1013.3
20260502113037 47 243 0.0 0.0 0.00 0.00 0.00 1 1013.2
20260502111532 47 243 0.0 0.0 0.00 0.00 0.00 1 1013.4
20260502110028 47 243 0.0 0.0 0.00 0.00 0.00 1 1013.1
20260502104528 47 243 0.0 0.0 0.00 0.00 0.00 1 1013.0
20260502103019 48 240 0.0 0.0 0.00 0.00 0.00 1 1012.9
20260502101514 48 240 0.0 0.0 0.00 0.00 0.00 1 1013.0
20260502090111 49 240 0.0 0.0 0.00 0.00 0.00 1 1013.2
20260502071521 51 186 0.0 0.0 0.00 0.00 0.00 1 1013.0
20260502070017 50 154 0.0 0.0 0.00 0.00 0.00 1 1013.1
20260502064512 51 154 0.0 0.0 0.00 0.00 0.00 1 1013.1
20260502063008 51 154 0.0 0.0 0.00 0.00 0.00 1 1013.0
20260502061502 51 154 0.0 0.0 0.00 0.00 0.00 1 1013.0
20260502060059 52 154 0.0 0.0 0.00 0.00 0.00 1 1012.9
20260502054555 53 154 0.0 0.0 0.00 0.00 0.00 1 1012.8
20260502053101 53 154 0.0 0.0 0.00 0.00 0.00 1 1012.8
20260502051546 53 154 0.0 0.0 0.00 0.00 0.00 1 1012.7
20260502050041 53 154 0.0 0.0 0.00 0.00 0.00 1 1012.7
20260502044537 53 154 0.0 0.0 0.00 0.00 0.00 1 1012.6
20260502043033 53 154 0.0 0.0 0.00 0.00 0.00 1 1012.5
20260502041531 54 154 0.0 0.0 0.00 0.00 0.00 8 1012.4
20260502040023 54 154 0.0 0.0 0.00 0.00 0.00 13 1012.4
20260502034518 55 105 0.0 0.0 0.00 0.00 0.00 20 1012.3
20260502033023 55 104 0.0 0.0 0.00 0.00 0.00 26 1012.1
20260502031513 56 105 0.0 0.0 0.00 0.00 0.00 31 1012.0
20260502030004 56 105 0.0 0.0 0.00 0.00 0.00 35 1011.9
20260502024607 57 105 0.0 0.0 0.00 0.00 0.00 36 1011.9
20260502023056 57 104 0.0 0.0 0.00 0.00 0.00 42 1011.8
20260502021552 57 104 0.0 0.0 0.00 0.00 0.00 43 1011.8
20260502020047 58 104 0.0 0.0 0.00 0.00 0.00 42 1011.8
20260502014542 58 104 0.0 0.0 0.00 0.00 0.00 41 1011.7
20260502013040 58 104 0.0 0.0 0.00 0.00 0.00 40 1012.0
20260502011533 58 105 0.0 0.0 0.00 0.00 0.00 41 1012.0
20260502010029 59 73 0.0 0.0 0.00 0.00 0.00 49 1012.1
20260502004524 59 73 0.0 0.0 0.00 0.00 0.00 54 1012.2
20260502003020 60 73 0.0 0.0 0.00 0.00 0.00 54 1012.1
20260502001514 62 72 0.0 0.0 0.00 0.00 0.00 61 1012.2
20260502000014 63 71 0.0 0.0 0.00 0.00 0.00 61 1012.2
20260501234506 65 44 0.0 0.0 0.00 0.00 0.00 60 1012.3
20260501233002 66 3 0.0 0.0 0.00 0.00 0.00 61 1012.4
20260501231604 66 356 0.0 0.0 0.00 0.00 0.00 59 1012.4
20260501230059 67 8 0.0 0.0 0.00 0.00 0.00 59 1012.5
20260501224548 68 4 0.0 0.0 0.00 0.00 0.00 59 1012.7
20260501223053 67 352 0.0 0.0 0.00 0.00 0.00 60 1012.9
20260501221539 67 3 0.0 0.0 0.00 0.00 0.00 57 1013.0
20260501220035 68 2 0.0 0.0 0.00 0.00 0.00 57 1013.0
20260501214531 68 10 0.0 0.0 0.00 0.00 0.00 58 1013.1
20260501213025 67 34 0.0 0.0 0.00 0.00 0.00 57 1013.2
20260501211521 67 4 0.0 0.0 0.00 0.00 0.00 55 1013.3
20260501210017 70 39 0.0 0.0 0.00 0.00 0.00 54 1013.3
20260501204512 68 167 0.0 0.0 0.00 0.00 0.00 56 1013.3
20260501203008 66 3 0.0 0.0 0.00 0.00 0.00 58 1013.4
20260501201502 66 27 0.0 0.0 0.00 0.00 0.00 60 1013.3
20260501200058 66 352 0.0 0.0 0.00 0.00 0.00 58 1013.4
20260501194600 66 351 0.0 0.0 0.00 0.00 0.00 60 1013.5
20260501193049 66 135 0.0 0.0 0.00 0.00 0.00 60 1013.6
20260501191545 66 268 0.0 0.0 0.00 0.00 0.00 61 1013.6
20260501190040 63 3 0.0 0.0 0.00 0.00 0.00 61 1013.8
20260501184536 62 3 0.0 0.0 0.00 0.00 0.00 61 1013.8
20260501183032 63 7 0.0 0.0 0.00 0.00 0.00 61 1013.9
20260501181527 64 8 0.0 0.0 0.00 0.00 0.00 61 1013.9
20260501180025 66 7 0.0 0.0 0.00 0.00 0.00 61 1014.0
20260501174534 66 7 0.0 0.0 0.00 0.00 0.00 61 1013.9
20260501173013 66 7 0.0 0.0 0.00 0.00 0.00 61 1013.9
20260501171507 64 238 0.0 0.0 0.00 0.00 0.00 54 1013.9
20260501170004 61 238 0.0 0.0 0.00 0.00 0.00 43 1014.0
20260501164602 59 238 0.0 0.0 0.00 0.00 0.00 43 1014.1
20260501163055 58 238 0.0 0.0 0.00 0.00 0.00 32 1014.1
20260501161551 57 238 0.0 0.0 0.00 0.00 0.00 29 1014.1
20260501160055 56 238 0.0 0.0 0.00 0.00 0.00 14 1014.3
20260501154546 54 238 0.0 0.0 0.00 0.00 0.00 1 1014.2
20260501153039 54 249 0.0 0.0 0.00 0.00 0.00 1 1014.1
20260501151536 52 249 0.0 0.0 0.00 0.00 0.00 1 1014.2
20260501150032 51 249 0.0 0.0 0.00 0.00 0.00 1 1014.1
20260501144524 48 249 0.0 0.0 0.00 0.00 0.00 1 1013.8
20260501143020 0 0.0 0.0 0.00 0.00 0.00 1013.7
20260501141518 0 0.0 0.0 0.00 0.00 0.00 1013.6